Regional Weather Roundup
Issued by NWS

Home | Current Version | Previous Version | Text Only | Print | Product List | Glossary Off
Versions: 1 2 3 4 5 6 7 8 9 10 11 12 13 14 15 16 17 18 19 20 21 22 23 24 25 26 27 28 29 30 31 32 33 34 35 36 37 38 39 40 41 42 43 44 45 46 47 48 49 50

000
ASUS45 KBOU 010507
RWRCO

WEATHER ROUNDUP FOR COLORADO
NATIONAL WEATHER SERVICE DENVER/BOULDER CO
1100 PM MDT SUN MAY 31 2015

NOTE: "FAIR" INDICATES FEW OR NO CLOUDS BELOW 12000 FEET WITH NO
SIGNIFICANT WEATHER AND/OR OBSTRUCTIONS TO VISIBILITY.

COZ001>005-013-030-031-010600-
...NORTHWEST COLORADO...

CITY           SKY/WX    TMP DP  RH WIND       PRES   REMARKS
CRAIG          PTCLDY    53  45  74 SE3       30.18R
HAYDEN         PTCLDY    57  39  51 E7        30.20S
MEEKER         MOCLDY    57  46  66 E8        30.21R
MOUNT WERNER   NOT AVBL
STEAMBOAT SPGS PTCLDY    56  40  55 CALM      30.23S
WALDEN         CLEAR     45  36  70 SE9       30.30S
$$

COZ006>008-011-010600-
...WEST CENTRAL VALLEYS...

CITY           SKY/WX    TMP DP  RH WIND       PRES   REMARKS
GRAND JUNCTION PTCLDY    74  41  30 SE16      30.08R
MONTROSE       PTCLDY    63  43  48 SE12      30.18S
EAGLE          PTCLDY    66  52  59 E6        30.26S
RIFLE          MOCLDY    63  49  60 CALM      30.16R
DELTA          PTCLDY    68  44  40 NE7       30.14R
NUCLA          MOCLDY    66  41  39 NE7       30.20R
$$

COZ017>023-064>068-010600-
...SOUTHWEST COLORADO...

CITY           SKY/WX    TMP DP  RH WIND       PRES   REMARKS
DURANGO        CLEAR     54  43  66 N5        30.23R
CORTEZ         CLEAR     60  41  49 E5        30.14S
PAGOSA SPRINGS CLEAR     54  37  54 CALM      30.32R
TELLURIDE      PTCLDY    52  37  57 SE6       30.42R
WOLF CREEK PAS NOT AVBL
$$

COZ009-010-012-014-032>034-037-058>063-010600-
...CENTRAL COLORADO...

CITY           SKY/WX    TMP DP  RH WIND       PRES   REMARKS
ASPEN          MOCLDY    51  39  63 SW8       30.32R
BUENA VISTA    MOCLDY    58  36  44 W12       30.34R
COPPER MTN     MOCLDY    46  30  53 W9        30.58F
BERTHOUD PASS  FAIR      37  32  81 W17       30.60S
COTTONWOOD PAS NOT AVBL
GUNNISON       PTCLDY    57  39  51 N5        30.36R
KREMMLING      PTCLDY    50  41  71 SW5       30.31R
LEADVILLE      MOCLDY    42  35  76 NE5       30.45S
MONARCH PASS   MOCLDY    41  32  70 W14       30.70R
SALIDA         MOCLDY    61  40  46 W8        30.39R
SUNLIGHT       CLOUDY    48  36  61 SE3       30.53S
WILKERSON PASS PTCLDY    45  32  61 N8G16     30.57S
$$

COZ069>075-010600-
...SAN LUIS VALLEY/SANGRE DE CRISTO MOUNTAINS...

CITY           SKY/WX    TMP DP  RH WIND       PRES   REMARKS
ALAMOSA        CLOUDY    58  41  53 W8        30.32R
LA VETA PASS   CLOUDY   N/A N/A N/A MISG      30.48S
SAGUACHE       MOCLDY    57  39  51 NW9       30.34R
$$

COZ035-036-038>040-010600-
...NORTHERN COLORADO FRONT RANGE...

CITY           SKY/WX    TMP DP  RH WIND       PRES   REMARKS
DENVER INTL AP MOCLDY    59  52  77 SE12      30.14R
DMNS CITY PARK   N/A     62  51  67 E3        30.14S
AURORA         MOCLDY    59  52  76 S9        30.17R
FRONT RANGE AP NOT AVBL
ERIE MUNI ARPT PTCLDY    59  53  78 SW5       30.13F
BOULDER MUN AP PTCLDY    63  52  67 SW5       30.14S
CENTENNIAL     MOCLDY    59  51  75 SE8       30.18R
BROOMFIELD     NOT AVBL
FORT COLLINS   CLEAR     61  54  77 SW3       30.13S
LONGMONT       CLEAR     61  55  80 CALM      30.14F
$$

COZ041-046-047-076>085-087-088-010600-
...PIKES PEAK/PALMER DIVIDE AND SOUTHERN FOOTHILLS...

CITY           SKY/WX    TMP DP  RH WIND       PRES   REMARKS
COLO. SPRINGS  PTCLDY    58  48  69 N3        30.22R
A. F. ACADEMY  PTCLDY    58  47  65 N5        30.23S
ELLICOTT       PTCLDY     1  32 100 S5        30.19S WCI  -9
FALCON         PTCLDY    55  46  73 W5        30.26S
FORT CARSON    NOT AVBL
LIMON          MOCLDY    55  53  93 N8        30.15F
MONUMENT HILL  PTCLDY    55  45  67 MISG      30.27R
TRINIDAD       MOCLDY    58  50  75 W16       30.18F
$$

COZ042>045-048>051-090-091-010600-
...NORTHEAST COLORADO...

CITY           SKY/WX    TMP DP  RH WIND       PRES   REMARKS
GREELEY ARPT   PTCLDY    59  55  88 CALM      30.10S
AKRON          MOCLDY    60  54  80 W7        30.10S
BURLINGTON     CLOUDY    60  53  77 W9        30.06R
WRAY           CLEAR     62  58  88 NW3       30.04R
STERLING       MOCLDY    63  55  77 CALM      30.06F
HOLYOKE        PTCLDY    61  57  88 SE6       30.05S
FORT MORGAN    MOCLDY    61 -15   4 CALM      30.10F
$$

COZ086-089-092>099-010600-
...SOUTHEAST COLORADO...

CITY           SKY/WX    TMP DP  RH WIND       PRES   REMARKS
PUEBLO         MOCLDY    62  53  72 NE6       30.09F
LA JUNTA       MOCLDY    65  53  65 SW12      30.07F
LAMAR          CLOUDY    64  51  62 S13       30.01F
SPRINGFIELD      N/A     61  54  77 S6        30.16R
$$



USA.gov is the U.S. government's official web portal to all federal, state and local government web resources and services.